Girona Airport

Jump to: basic info | weather | frequencies | runways | comments

Related pages: nearby airports | nearby navaids | notams | map

Basic information (top)

Codes: GRO LEGE
Location: lon 41.901001, lat 2.760550, elev 468 ft / 143 m msl
Status: medium_airport
Scheduled airline service: yes
Links: Wikipedia Mobile

Weather (top)

Current conditions (rec'd 2014/07/31 11:00Z):

LEGE 311100Z 16002KT 9999 FEW040 28/14 Q1013

Airport forecast (rec'd 2014/07/31 06:27Z):

TAF LEGE 310500Z 3106/0106 VRB03KT 9999 FEW030 TX31/3112Z TN15/3106Z 
      BECMG 3110/3113 19010KT 
      BECMG 3118/3121 VRB03KT

Frequencies (top)

Verify before use: may be inaccurate or out of date.

APP: 120.9 MHz (APP)
GND: 121.7 MHz (GND)
TWR: 118.5 MHz (TWR)

Runways (top)

02/20: 7,874 x 148 ft (2,400 x 45 m) — paved — lighted

Latest comments (top)

No comments yet for Girona Airport

More... (top)

See also NOTAMs and nearby airports and navaids, or visit the Girona Airport page at the main OurAirports website..